Время (UTC), дата Ветер
(°,м/с) 
Видим.   Явления Облачность Т
(°С)
Тd
(°С)
f(%) Тe
(°С)
Pmin
(гПа)
dP
(гПа)
Po
(мм)
O2
(г/м3)
Тmin Tmax R s Состояние
почвы
00 01.02.13 230 (ЮЗ) 4000 м  слаб. снег  10/0 верхняя 
[Cs]
-15.9 -19.3 75 -21  1031.9  -0.8  746  321  -17.5    0.2  21  равномерный
сухой снег
100% 
06 01.02.13 230 (ЮЗ) 4{11}  >10 км  слаб. ливневой снег  10/8 600 м кучево-дожд., верхняя 
[Cb cap|Cs]
-12.4 -15.9 75 -17  1028  -1.3  744  315           
09 01.02.13 220 (ЮЗ) >10 км  слаб. ливневой снег  10/10 600 м кучево-дожд. 
[Cb cap]
-11.4 -14.9 75 -15  1027.1  -0.8  743  314           
12 01.02.13 240 (ЮЗ) 4000 м  слаб. ливневой снег  10/5 600 м кучево-дожд., средняя 
[Cb cap|Ac trans]
-12.4 -13.7 90 -14  1026.6  -0.5  743  315    -11.2  0.6     
15 01.02.13 240 (ЮЗ) 4000 м  {ливн. осадки}  3/0 верхняя 
[Ci fib]
-14.5 -15.8 90 -17  1026.5  -0.4  742  317           
18 01.02.13 тихо ()   4000 м  слаб. ливневой снег  5/3 600 м кучево-дожд., средняя 
[Cb cap|Ac trans]
-18.6 -19.8 91 -19  1026.6  -0.6  742  322           
21 01.02.13 тихо ()   4000 м  слаб. ливневой снег  9/6 600 м кучево-дожд., средняя 
[Cb cap|Ac trans]
-18.4 -19.6 90 -18  1026  -0.5  742  322           
00 02.02.13 тихо ()   4000 м  слаб. ливневой снег  9/8 600 м кучево-дожд., средняя 
[Cb cap|Ac trans]
-18 -18.6 95 -18  1025.8  -0.2  741  321  -19.6    0.2  21  равномерный
сухой снег
100% 
03 02.02.13 тихо ()   >10 км  слаб. ливневой снег  5/3 600 м кучево-дожд., средняя 
[Cb cap|Ac trans]
-17.2 -18.4 91 -17  1026.4  0.8  742  321           
06 02.02.13 020 (С) >10 км  слаб. ливневой снег  5/3 600 м кучево-дожд., верхняя 
[Cb cap|Cc]
-13.6 -16.3 80 -14  1027.4  1.5  743  317           
09 02.02.13 030 (СВ) >10 км  в посл. час ливневой снег  4/3 600 м кучево-дожд., верхняя 
[Cb cap|Cc]
-14.8 -16.8 85 -15  1029.3  1.6  744  319           
12 02.02.13 240 (ЮЗ) 4000 м  слаб. ливневой снег  6/4 600 м кучево-дожд., верхняя 
[Cb cap|Ci fib]
-18 -19.2 90 -18  1031.6  1.7  746  323    -12.8  0.3     
18 02.02.13 тихо ()   4000 м  {ливн. осадки}  ясно 
-22.6 -23.8 90 -23  1034.6  0.7  747  330           
00 03.02.13 тихо ()   4000 м    ясно 
-25.8 -27 89 -26  1035.4  0.2  748  334  -25.8    0.0  22  равномерный
сухой снег
100% 
06 03.02.13 080 (В) >10 км    ясно 
-18.8 -20.7 85 -19  1032.1  -1  746  324           
09 03.02.13 тихо ()   4000 м  дымка  ясно 
-15.8 -19.2 75 -16  1029.4  -2.2  744  320           
12 03.02.13 010 (С) 4000 м    3/3 2000 м средняя 
[Ac lent]
-18.3 -20.2 85 -19  1028.9  -0.8  744  323    -14.8       
15 03.02.13 050 (СВ) 4000 м    4/4 2000 м средняя 
[Ac lent]
-16 -17.9 85 -16  1028.2  -0.4  743  320           
18 03.02.13 тихо ()   4000 м  слаб. ливневой снег  9/6 600 м кучево-дожд., средняя 
[Cb cap|Ac trans]
-14.8 -16.1 90 -15  1028  743  318           
21 03.02.13 240 (ЮЗ) 4000 м  слаб. ливневой снег  9/8 600 м кучево-дожд., средняя 
[Cb cap|Ac trans]
-12.8 -14.1 90 -15  1028  0.3  744  316           
00 04.02.13 230 (ЮЗ) 4000 м  слаб. ливневой снег  9/4 600 м кучево-дожд., средняя 
[Cb cap|Ac trans]
-14.7 -16 90 -17  1028.8  0.5  744  318  -18.5    0.0  22  равномерный
сухой снег
100% 
03 04.02.13 230 (ЮЗ) 4000 м  ливневой снег  9/4 600 м кучево-дожд., верхняя 
[Cb cap|Ci fib]
-14.6 -16.6 84 -17  1030  1.3  745  319           
06 04.02.13 060 (СВ) >10 км  слаб. ливневой снег  8/6 600 м кучево-дожд., верхняя 
[Cb cap|Ci fib]
-12.7 -15.4 80 -13  1031.3  1.3  746  317           
09 04.02.13 090 (В) 2000 м  слаб. ливневой снег  10/10 600 м кучево-дожд. 
[Cb cap]
-11.4 -13.4 85 -11  1032.2  1.2  747  315           
12 04.02.13 060 (СВ) н/о  ливневой снег  10/10 600 м кучево-дожд. 
[Cb cap]
-12.3 -13.6 90 -12  1034.2  1.8  748  317    -10.6  0.3     
15 04.02.13 тихо ()   н/о  ливневой снег  10/10 600 м кучево-дожд. 
[Cb cap]
-14.3 -14.9 95 -14  1035.5  749  320           
18 04.02.13 тихо ()   4000 м  слаб. ливневой снег  4/4 600 м кучево-дожд. 
[Cb cap]
-19.8 -21 90 -20  1038.3  1.8  750  328           
21 04.02.13 230 (ЮЗ) 4000 м  слаб. ливневой снег  4/3 600 м кучево-дожд., верхняя 
[Cb cap|Ci fib]
-22 -23.2 90 -22  1039.8  1.2  751  331           
00 05.02.13 110 (В) 4000 м  ледяные иглы{ливн. осадки}  ясно 
-24.2 -25.3 90 -25  1041.8  1.6  752  334  -24.2    0.3  23  равномерный
сухой снег
100% 
03 05.02.13 120 (ЮВ) 10 км    3/0 верхняя 
[Ci fib]
-24.5 -25.7 90 -25  1043.1  1.3  753  335  -25         
06 05.02.13 070 (В) >10 км    3/0 верхняя 
[Ci fib]
-22.2 -24.7 81 -25  1043.7  0.9  754  332           
09 05.02.13 060 (СВ) >10 км    8/0 верхняя 
[Ci fib]
-20.6 -23.9 75 -23  1043.3  -0.3  754  330           
12 05.02.13 090 (В) 4000 м    ясно 
-22.3 -24.8 80 -27  1044  0.5  754  333    -20.4       
15 05.02.13 080 (В) 4000 м    3/0 верхняя 
[Ci fib]
-25.8 -27.6 85 -29  1044.9  0.2  754  337           
18 05.02.13 080 (В) 4000 м    4/0 верхняя 
[Ci fib]
-25.8 -28.2 80 -29  1044.4  -0.4  754  337           
21 05.02.13 тихо ()   4000 м  ледяные иглы  9/0 верхняя 
[Ci fib]
-28.2 -30 85 -28  1044  -0.7  754  340           
00 06.02.13 тихо ()   4000 м  ледяные иглы  9/0 верхняя 
[Ci fib]
-29.2 -30.9 85 -29  1043.7  -0.5  753  342  -29.2      23  равномерный
сухой снег
100% 
03 06.02.13 050 (СВ) >10 км    10/0 верхняя 
[Cs]
-26.7 -29.1 80 -27  1043.7  0.4  753  338           
06 06.02.13 030 (СВ) >10 км    10/0 верхняя 
[Cs]
-23.9 -27.8 70 -27  1043.5  0.2  756  336           
09 06.02.13 040 (СВ) >10 км    9/0 верхняя 
[Ci fib]
-22.6 -26.6 70 -23  1043.2  -0.1  754  333           
12 06.02.13 220 (ЮЗ) 4000 м    9/0 верхняя 
[Ci fib]
-26.8 -29.3 79 -27  1045.3  1.4  755  339    -22.5       
15 06.02.13 230 (ЮЗ) 4000 м    ясно 
-27.5 -29.3 84 -28  1045.7  0.4  755  340           
18 06.02.13 240 (ЮЗ) 4000 м    ясно 
-28.7 -30.5 84 -29  1046.4  0.3  755  342           
21 06.02.13 240 (ЮЗ) 4000 м    ясно 
-29.8 -31.5 85 -31  1046.8  0.3  755  344           
00 07.02.13 230 (ЮЗ) 4000 м    ясно 
-30.1 -31.9 84 -31  1047.3  0.5  756  344  -30.3      23  равномерный
сухой снег
100% 
03 07.02.13 тихо ()   10 км    ясно 
-30.5 -32.1 88 -31  1048.5  0.9  756  345          влажная 
06 07.02.13 040 (СВ) 2000 м  дымка  ясно 
-25.4 -27.8 79 -26  1047  -0.4  756  338           
09 07.02.13 тихо ()   4000 м  дымка  ясно 
-24 -26.5 80 -24  1046.7  -0.2  756  336           
12 07.02.13 210 (ЮЗ) 4000 м    ясно 
-28 -30.4 80 -29  1047  -0.3  756  341    -22.7       
15 07.02.13 240 (ЮЗ) 4000 м    6/0 верхняя 
[Ci fib]
-28 -29.8 85 -29  1046.6  -0.4  755  341           
18 07.02.13 240 (ЮЗ) 4000 м    ясно 
-29 -30.7 86 -30  1046  -0.8  755  342           
21 07.02.13 240 (ЮЗ) 4000 м    3/0 верхняя 
[Ci fib]
-29.6 -31.3 85 -30  1045.3  -0.8  754  343           
00 08.02.13 тихо ()   4000 м    ясно 
-30.5 -32.1 88 -31  1045  -0.4  754  344  -30.5      23  равномерный
сухой снег
100% 
03 08.02.13 тихо ()   4000 м  дымка  ясно 
-29.5 -31.3 85 -30  1044.4  -0.3  754  342  -31.1         
06 08.02.13 340 (С) 4000 м  дымка  ясно 
-24.1 -27.3 75 -25  1043  -0.5  753  335           
09 08.02.13 тихо ()   4000 м  дымка  ясно 
-21.9 -27.8 58 -22  1042  -0.6  753  332           
12 08.02.13 240 (ЮЗ) н/о  дымка  ясно 
-25.4 -27.2 85 -26  1042.6  0.1  754  337    -22.4       
15 08.02.13 230 (ЮЗ) н/о  дымка  ясно 
-25.7 -27.4 86 -26  1042.8  753  337           
18 08.02.13 тихо ()   н/о  дымка  ясно 
-26.7 -27.9 90 -27  1042.7  -0.2  753  338           
21 08.02.13 230 (ЮЗ) н/о  дымка  ясно 
-27.5 -29.3 84 -28  1042.2  -0.5  752  339           
00 09.02.13 тихо ()   н/о  дымка  ясно 
-28 -29.8 85 -28  1042.5  0.1  752  340  -28      23  равномерный
сухой снег
100% 
06 09.02.13 080 (В) 2000 м  дымка  9/0 верхняя 
[Ci fib]
-21.9 -24.4 80 -22  1040.9  -1.1  752  331           
12 09.02.13 240 (ЮЗ) н/о  дымка  9/0 верхняя 
[Ci fib]
-22.8 -24.6 86 -23  1040.8  752  332    -19.2       
18 09.02.13 090 (В) н/о  дымка  4/0 верхняя 
[Ci fib]
-24.2 -26 85 -25  1039.6  -0.5  751  334           
06 10.02.13 240 (ЮЗ) 4{12}  >10 км    9/5 600 м кучево-дожд., средняя 
[Cb cap|Ac trans]
-13.8 -18.1 70 -18  1035  -1.5  749  319           
12 10.02.13 220 (ЮЗ) 7-16{15}  н/о  ливневой снег  10/10 600 м кучево-дожд. 
[Cb cap]
-11.2 -14.7 75 -17  1027.4  -3.7  743  314    -10.8  0.0     
18 10.02.13 260 (З) 2{11}  н/о  ливневой снег  10/10 600 м кучево-дожд. 
[Cb cap]
-10.6 -12.6 85 -12  1023.1  -0.9  740  312           
00 11.02.13 250 (З) 4000 м  слаб. ливневой снег  10/10 600 м кучево-дожд. 
[Cb cap]
-11.2 -14 80 -13  1020.3  -1.4  738  311  -11.4    23  равномерный
сухой снег
100% 
06 11.02.13 240 (ЮЗ) >10 км  слаб. ливневой снег  10/10 600 м кучево-дожд. 
[Cb cap]
-8.8 -12.1 77 -10  1018.9  -0.7  737  308           
09 11.02.13 250 (З) >10 км  слаб. ливневой снег  9/8 600 м кучево-дожд., средняя, верхняя 
[Cb cap|Ac trans|Ci fib]
-9.1 -13 73 -11  1019.3  0.4  738  309           
12 11.02.13 240 (ЮЗ) 4000 м  слаб. ливневой снег  9/6 600 м кучево-дожд., верхняя 
[Cb cap|Ci fib]
-11 -13.8 80 -14  1021.9  2.3  739  312    -8.6  0.5     
18 11.02.13 260 (З) 4000 м  слаб. ливневой снег  9/5 600 м кучево-дожд., средняя 
[Cb cap|Ac trans]
-14.1 -16.8 80 -14  1027.3  1.7  743  317           
21 11.02.13 250 (З) 4000 м  слаб. ливневой снег  8/4 600 м кучево-дожд., верхняя 
[Cb cap|Ci ing]
-14.6 -17.3 80 -17  1027.6  0.3  743  318           
00 12.02.13 230 (ЮЗ) 4{10}  4000 м  слаб. ливневой снег  10/10 600 м кучево-дожд. 
[Cb cap]
-14 -16.7 80 -19  1028.3  0.7  744  317  -15.1    0.0  23  равномерный
сухой снег
100% 
03 12.02.13 240 (ЮЗ) >10 км  слаб. ливневой снег  9/8 600 м кучево-дожд., средняя 
[Cb cap|Ac trans]
-13.8 -16.5 80 -17  1029.2  0.9  744  317           
06 12.02.13 240 (ЮЗ) >10 км  ливневой снег  10/10 600 м кучево-дожд. 
[Cb cap]
-12.2 -15.7 75 -16  1029.6  0.7  745  316           
09 12.02.13 250 (З) >10 км  слаб. ливневой снег  9/6 600 м кучево-дожд., средняя 
[Cb cap|Ac trans]
-10.5 -14.9 70 -12  1030.1  0.7  745  314           
12 12.02.13 250 (З) 4000 м  в посл. час ливневой снег  8/5 600 м кучево-дожд., верхняя 
[Cb cap|Ci ing]
-12.8 -16.3 75 -15  1032.3  1.7  747  317    -10.2  0.4     
15 12.02.13 240 (ЮЗ) 4000 м    9/5 600 м кучево-дожд., верхняя 
[Cb cap|Ci fib]
-14.7 -18.1 75 -17  1034.2  1.6  748  320           
18 12.02.13 240 (ЮЗ) 4000 м  слаб. ливневой снег  9/8 600 м кучево-дожд., верхняя 
[Cb cap|Ci fib]
-14.8 -17.5 80 -15  1034.7  0.4  748  320           
21 12.02.13 240 (ЮЗ) 4000 м  слаб. ливневой снег  8/5 600 м кучево-дожд., верхняя 
[Cb cap|Ci fib]
-15.2 -17.9 80 -15  1034.6  -0.1  748  321           
00 13.02.13 240 (ЮЗ) 4000 м  слаб. ливневой снег  9/6 600 м кучево-дожд., верхняя 
[Cb cap|Ci fib]
-14.8 -17.5 80 -18  1033.9  -0.6  748  320  -15.2    0.0  22  равномерный
сухой снег
100% 
06 13.02.13 220 (ЮЗ) 3{10}  >10 км  слаб. ливневой снег  10/10 600 м кучево-дожд. 
[Cb cap]
-10.8 -14.4 75 -14  1031.5  -1.3  746  314           
09 13.02.13 230 (ЮЗ) >10 км  слаб. ливневой снег  10/10 600 м кучево-дожд. 
[Cb cap]
-9.7 -13.8 72 -11  1029.2  -2  745  312           
12 13.02.13 210 (ЮЗ) 4000 м  {ливн. осадки}  9/6 2000 м средняя, верхняя 
[Ac trans|Ci fib]
-10.5 -15.8 65 -14  1027.1  -2.1  743  313    -9.4  0.3     
15 13.02.13 210 (ЮЗ) 4{10}  4000 м    9/6 600 м кучево-дожд., верхняя 
[Cb cap|Ci fib]
-11.3 -16.6 65 -15  1024.5  -2.7  741  313           
18 13.02.13 210 (ЮЗ) 4{12}  4000 м  слаб. ливневой снег  9/8 600 м кучево-дожд., верхняя 
[Cb cap|Ci fib]
-11.5 -15.9 70 -16  1021  -3.3  739  312           
00 14.02.13 210 (ЮЗ) 4{12}  н/о  ливневой снег  10/10 600 м кучево-дожд. 
[Cb cap]
-10.3 -13.1 80 -14  1014.3  -2.9  734  308  -11.7    0.3  22  равномерный
сухой снег
100% 
06 14.02.13 240 (ЮЗ) 2{11}  >10 км  слаб. ливневой снег  10/5 600 м кучево-дожд., средняя 
[Cb cap|As trans]
-7.5 -12 70 -9  1010.2  -1.3  731  304           
12 14.02.13 280 (З) 2{13}  н/о  ливневой снег  10/10 600 м кучево-дожд. 
[Cb cap]
-9.1 -10.5 90 -11  1011.5  1.4  732  306    -6.7  0.4     
15 14.02.13 240 (ЮЗ) 4000 м  в посл. час ливневой снег  9/5 600 м кучево-дожд., верхняя 
[Cb cap|Ci fib]
-10.8 -14.4 75 -14  1013.2  1.2  733  309           
18 14.02.13 250 (З) 4000 м  слаб. ливневой снег  10/10 600 м кучево-дожд. 
[Cb cap]
-11.2 -14.7 75 -13  1013.5  0.3  733  309           
21 14.02.13 240 (ЮЗ) 4000 м  слаб. ливневой снег  10/10 600 м кучево-дожд. 
[Cb cap]
-11.4 -13.4 85 -11  1013.6  0.1  733  310           
00 15.02.13 220 (ЮЗ) 4000 м  слаб. ливневой снег  10/10 600 м кучево-дожд. 
[Cb cap]
-12.2 -13.5 90 -14  1013.7  -0.1  733  310  -12.6    0.4  25  равномерный
сухой снег
100% 
06 15.02.13 260 (З) >10 км  слаб. ливневой снег  10/5 600 м кучево-дожд., верхняя 
[Cb cap|Cs]
-9.7 -15.9 60 -13  1014.2  0.1  734  308           
09 15.02.13 270 (З) >10 км  слаб. ливневой снег  10/6 600 м кучево-дожд., верхняя 
[Cb cap|Cs]
-10.1 -17.9 53 -12  1015.2  0.9  735  309           
12 15.02.13 270 (З) 3{11}  4000 м  позёмок{ливн. осадки}  10/4 600 м кучево-дожд., верхняя 
[Cb cap|Cs]
-14.2 -21 56 -18  1018.6  2.7  737  315    -8.8  0.2     
15 15.02.13 270 (З) 4000 м  слаб. ливневой снег  10/6 600 м кучево-дожд., верхняя 
[Cb cap|Cs]
-16.4 -21.8 63 -20  1021  738  318           
18 15.02.13 260 (З) 4000 м  слаб. ливневой снег  10/10 600 м кучево-дожд. 
[Cb cap]
-18.7 -23.6 65 -21  1023.6  2.2  740  322           
00 16.02.13 250 (З) 4000 м  слаб. ливневой снег  10/10 600 м кучево-дожд. 
[Cb cap]
-20.2 -24.1 71 -25  1028  2.2  743  325  -20.3    0.3  23  равномерный
сухой снег
100% 
06 16.02.13 250 (З) 3{10}  >10 км  слаб. ливневой снег  10/8 600 м кучево-дожд., верхняя 
[Cb cap|Cs]
-17.4 -25.2 51 -21  1030.8  1.3  745  322           
12 16.02.13 260 (З) 3{10}  4000 м  слаб. ливневой снег  9/5 600 м кучево-дожд., верхняя 
[Cb cap|Ci fib]
-19.9 -26.4 56 -24  1034.3  747  327    -17.1  0.3     
15 16.02.13 240 (ЮЗ) 4000 м  {ливн. осадки}  9/4 600 м кучево-дожд., верхняя 
[Cb cap|Ci fib]
-21 -25.9 64 -25  1036.2  1.8  749  329           
18 16.02.13 250 (З) 4000 м  {ливн. осадки}  8/3 600 м кучево-дожд., верхняя 
[Cb cap|Ci fib]
-21 -25 70 -24  1036.8  0.6  749  329           
21 16.02.13 240 (ЮЗ) 4000 м  слаб. ливневой снег  9/4 600 м кучево-дожд., верхняя 
[Cb cap|Ci fib]
-21.3 -24.6 75 -24  1036.8  749  329           
00 17.02.13 220 (ЮЗ) 4000 м  слаб. ливневой снег  9/3 600 м кучево-дожд., верхняя 
[Cb cap|Ci fib]
-21 -24.3 75 -24  1036.2  -0.6  749  328  -21.5    0.2  23  равномерный
сухой снег
100% 
03 17.02.13 230 (ЮЗ) >10 км  слаб. ливневой снег  10/10 600 м кучево-дожд. 
[Cb cap]
-19.5 -23.6 69 -25  1035.1  -0.7  748  326           
06 17.02.13 270 (З) 4000 м  ливневой снег  10/10 600 м кучево-дожд. 
[Cb cap]
-16.2 -20.4 70 -21  1034  -0.6  748  322           
12 17.02.13 210 (ЮЗ) 6{10}  4000 м  позёмок{ливн. осадки}  9/0 верхняя 
[Ci fib]
-15.7 -19.8 71 -22  1031.7  -0.9  746  320    -14.1  0.6     
18 17.02.13 220 (ЮЗ) 5{13}  4000 м  слаб. ливневой снег  9/8 600 м кучево-дожд., верхняя 
[Cb cap|Ci fib]
-16.2 -20.5 69 -22  1029.7  -0.6  745  320           
00 18.02.13 220 (ЮЗ) 4{11}  4000 м  слаб. ливневой снег  10/4 600 м кучево-дожд., верхняя 
[Cb cap|Ci ing]
-16 -19.4 75 -21  1027.9  -0.7  743  320  -16.2    0.4  22  равномерный
сухой снег
100% 
06 18.02.13 230 (ЮЗ) >10 км  слаб. ливневой снег  3/3 600 м кучево-дожд., верхняя 
[Cb cap|Ci fib]
-11.7 -17.5 62 -15  1026.5  -0.3  743  314           
09 18.02.13 230 (ЮЗ) >10 км    4/4 600 м кучево-дожд. 
[Cb cap]
-10.1 -16.4 60 -12  1026.2  -0.3  743  312           
12 18.02.13 250 (З) 4000 м  слаб. ливневой снег  9/6 600 м кучево-дожд., средняя 
[Cb cap|Ac lent]
-13.5 -17.3 73 -13  1027.4  0.9  743  316    -10.2  0.0     
15 18.02.13 240 (ЮЗ) 4000 м  слаб. ливневой снег  8/4 600 м кучево-дожд., средняя 
[Cb cap|Ac lent]
-14.7 -17.6 79 -17  1028.3  0.7  744  318           
18 18.02.13 240 (ЮЗ) 4000 м  слаб. ливневой снег  10/10 600 м кучево-дожд. 
[Cb cap]
-14.3 -17.8 74 -16  1028.5  0.3  744  318           
21 18.02.13 250 (З) 4000 м  слаб. ливневой снег  10/10 600 м кучево-дожд. 
[Cb cap]
-14.2 -17.7 75 -16  1028.2  -0.3  744  317           
00 19.02.13 220 (ЮЗ) 4000 м  слаб. ливневой снег  10/10 600 м кучево-дожд. 
[Cb cap]
-14.4 -17.7 76 -19  1027.7  -0.5  743  318  -14.8    0.3  22  равномерный
сухой снег
100% 
03 19.02.13 220 (ЮЗ) >10 км  слаб. ливневой снег  10/6 600 м кучево-дожд., средняя 
[Cb cap|Ac As]
-13.6 -17.4 73 -17  1027.1  -0.5  743  316           
06 19.02.13 220 (ЮЗ) 4{10}  >10 км  слаб. ливневой снег  10/5 600 м кучево-дожд., верхняя 
[Cb cap|Cs]
-10.7 -15.1 70 -15  1024.6  -2  741  312           
12 19.02.13 240 (ЮЗ) 3{11}  н/о  ливневой снег  10/6 600 м кучево-дожд., верхняя 
[Cb cap|Cs]
-9.5 -11.4 86 -12  1020.2  -1.2  738  309    -8.9  0.8     
15 19.02.13 240 (ЮЗ) 4000 м  слаб. ливневой снег  10/8 600 м кучево-дожд., верхняя 
[Cb cap|Cs]
-9.6 -12.7 78 -13  1020.4  0.1  738  310           
18 19.02.13 250 (З) 4000 м  слаб. ливневой снег  10/5 600 м кучево-дожд., верхняя 
[Cb cap|Cs]
-10.7 -14.2 75 -14  1021.8  1.1  739  311           
21 19.02.13 260 (З) 4000 м  слаб. ливневой снег  10/10 600 м кучево-дожд. 
[Cb cap]
-11.5 -15.4 73 -15  1022.4  0.5  740  312           
00 20.02.13 250 (З) 4000 м  слаб. ливневой снег  10/6 600 м кучево-дожд., верхняя 
[Cb cap|Cs]
-12 -15.8 73 -15  1024.2  1.7  741  314  -12    0.4  23  равномерный
сухой снег
100% 
06 20.02.13 280 (З) >10 км  слаб. ливневой снег  10/5 600 м кучево-дожд., верхняя 
[Cb cap|Cs]
-9.2 -17.3 52 -12  1028.4  1.9  744  312           
09 20.02.13 270 (З) >10 км  {ливн. осадки}  9/5 600 м кучево-дожд., средняя 
[Cb cap|Ac trans]
-8.9 -17.5 50 -11  1030  1.9  746  312           
12 20.02.13 270 (З) 4000 м  {ливн. осадки}  6/3 2000 м средняя, верхняя 
[Ac trans|Ci fib]
-13.8 -17.7 73 -14  1032.7  1.9  747  318    -8.8  0.2     
15 20.02.13 тихо ()   4000 м    8/5 1000 м средняя 
[Sc|Ac trans]
-15.4 -17.7 83 -15  1033.8  0.9  748  321           
18 20.02.13 230 (ЮЗ) 4000 м    4/3 2000 м средняя, верхняя 
[Ac trans|Ci fib]
-13.5 -16.3 80 -17  1033.3  -0.3  747  318           
21 20.02.13 210 (ЮЗ) 4000 м    3/0 верхняя 
[Ci fib]
-15 -17.7 80 -17  1032.6  -0.8  747  320           
00 21.02.13 110 (В) 4000 м    3/0 верхняя 
[Ci fib]
-15.9 -18 84 -16  1030.5  -2.2  745  320  -18.6      23  равномерный
сухой снег
100% 
06 21.02.13 210 (ЮЗ) 4{14}  >10 км  позёмок  9/3 2000 м средняя, верхняя 
[Ac trans|Ci fib]
-7.2 -15.2 53 -11  1025.4  -1.1  742  308           
12 21.02.13 240 (ЮЗ) 4000 м    9/9 2000 м средняя 
[Ac trans]
-5.9 -13.6 54 -8  1023.8  -0.2  741  306    -4       
15 21.02.13 240 (ЮЗ) 4000 м    10/0 верхняя 
[Cs]
-7.4 -13.8 60 -7  1024.3  0.3  742  308           
18 21.02.13 тихо ()   4000 м    10/0 верхняя 
[Cs]
-8.4 -14.2 63 -8  1023.9  -0.5  741  309           
21 21.02.13 тихо ()   4000 м    10/0 верхняя 
[Cs]
-11.3 -14.6 77 -11  1023.9  -0.4  741  313           
00 22.02.13 060 (СВ) 4000 м    10/3 2000 м средняя, верхняя 
[Ac trans|Cs]
-13 -15.2 84 -13  1023.4  -0.8  740  314  -13.1      23  равномерный
сухой снег
100% 
03 22.02.13 030 (СВ) >10 км    9/0 верхняя 
[Ci fib]
-11.9 -15 78 -12  1022.7  -0.5  740  313  -14.3         
06 22.02.13 240 (ЮЗ) >10 км    10/4 1000 м средняя, верхняя 
[Sc|Ac trans|Cs]
-3.2 -10.7 56 -5  1020.9  -0.6  739  302           
09 22.02.13 250 (З) >10 км  {ливн. осадки}  10/3 600 м кучево-дожд., средняя, верхняя 
[Cb cap|Ac trans|Cs]
-0.8 -8.1 58 -2  1019.2  -1.3  738  299           
12 22.02.13 250 (З) 4000 м  {ливн. осадки}  10/4 600 м кучево-дожд., средняя, верхняя 
[Cb cap|Ac trans|Cs]
-2.8 -8.7 64 -2  1018.8  -0.6  738  301    -0.6  0.0     
15 22.02.13 230 (ЮЗ) 4000 м    10/3 600 м кучево-дожд., средняя, верхняя 
[Cb cap|Ac trans|Cs]
-2.5 -9.2 60 -4  1018  -0.8  737  301           
18 22.02.13 220 (ЮЗ) 4000 м    10/6 2000 м средняя, верхняя 
[Ac trans|Cs]
-3.5 -9.1 65 -5  1017.4  -0.8  737  302           
21 22.02.13 220 (ЮЗ) н/о  ливневой снег  10/10 600 м кучево-дожд. 
[Cb cap]
-3.8 -5.8 86 -6  1017.3  -0.1  737  302           
00 23.02.13 220 (ЮЗ) 4000 м  слаб. ливневой снег  10/10 600 м кучево-дожд. 
[Cb cap]
-4.3 -5.5 91 -6  1018.6  1.2  738  303  -4.5    0.4  24  равномерный
сухой снег
100% 
06 23.02.13 250 (З) >10 км  слаб. ливневой снег  10/8 600 м кучево-дожд., верхняя 
[Cb cap|Cs]
-2.1 -9.5 57 -5  1019.4  0.1  738  301           
12 23.02.13 240 (ЮЗ) 2{12}  >10 км  {ливн. осадки}  8/5 600 м кучево-дожд., средняя, верхняя 
[Cb cap|Ac lent|Ci fib]
-3.9 -11.5 55 -5  1019.7  0.5  739  303    -1.6  0.2     
15 23.02.13 тихо ()   4000 м    3/0 верхняя 
[Cc]
-6.1 -11.7 64 -6  1019.7  -0.3  738  305           
18 23.02.13 210 (ЮЗ) 4000 м    10/0 верхняя 
[Cs]
-6.8 -12.2 65 -6  1018.5  -1.3  737  306           
21 23.02.13 230 (ЮЗ) 4000 м    10/4 2000 м средняя, верхняя 
[Ac lent|Cs]
-4.7 -11.9 57 -6  1017.1  -1.1  737  303           
00 24.02.13 230 (ЮЗ) 4000 м    10/5 2000 м средняя, верхняя 
[Ac lent|Cs]
-4.7 -11.3 60 -6  1016.7  -0.4  736  303  -8.2      22  равномерный
сухой снег
100% 
03 24.02.13 240 (ЮЗ) >10 км    10/4 2000 м средняя, верхняя 
[Ac lent|Cs]
-2.7 -10.7 54 -2  1016.1  -0.4  736  300           
06 24.02.13 240 (ЮЗ) >10 км    10/10 2000 м 
[Ac As]
-1 -10.4 49 -3  1014.4  -1.4  735  298           
09 24.02.13 240 (ЮЗ) >10 км    10/3 2000 м средняя, верхняя 
[Ac trans|Cs]
-0.6 -11.3 44 -1  1012.9  -1.4  734  297           
12 24.02.13 200 (Ю) >10 км    9/6 2000 м средняя, верхняя 
[Ac trans|Ci fib]
-4.7 -11.1 61 -4  1012.5  -0.9  733  302    -0.3       
15 24.02.13 210 (ЮЗ) 4000 м    10/10 2000 м 
[Ac As]
-2.6 -11 52 -5  1011.1  -1  732  299           
18 24.02.13 240 (ЮЗ) 4{11}  4000 м  позёмок  10/6 600 м кучево-дожд., средняя 
[Cb cap|Ac As]
-2.8 -10.9 54 -6  1011.3  0.2  733  299           
00 25.02.13 240 (ЮЗ) 3{11}  4000 м  {ливн. осадки}  10/10 2000 м 
[Ac As]
-13.5 -20.1 57 -17  1020.8  2.8  738  314  -13.5    0.0  22  равномерный
сухой снег
100% 
03 25.02.13 260 (З) >10 км    10/0 2000 м средняя 
[Ac As]
-13.8 -20.7 56 -17  1022.1  1.2  739  315  -14.5         
06 25.02.13 230 (ЮЗ) >10 км    9/3 600 м кучево-дожд., средняя, верхняя 
[Cb cap|Ac trans|Ci fib]
-10.7 -22.8 36 -14  1021.6  0.1  739  312           
09 25.02.13 280 (З) >10 км    9/8 600 м кучево-дожд., верхняя 
[Cb cap|Ci fib]
-9.7 -23.5 31 -10  1021.1  -0.3  739  310           
12 25.02.13 220 (ЮЗ) >10 км    9/0 верхняя 
[Ci fib]
-15.8 -23.2 53 -16  1022.2  0.2  739  318    -9.1       
15 25.02.13 200 (Ю) 4000 м    10/10 2000 м 
[Ac As]
-15.3 -21.8 58 -15  1022.5  0.4  739  317           
18 25.02.13 220 (ЮЗ) 4000 м  слаб. ливневой снег  10/8 600 м кучево-дожд., верхняя 
[Cb cap|Cs]
-14.5 -17.2 80 -17  1023.6  1.1  740  316           
21 25.02.13 220 (ЮЗ) 4000 м  {ливн. осадки}  10/3 600 м кучево-дожд., верхняя 
[Cb cap|Cs]
-14.7 -18.9 70 -18  1025.1  1.5  741  317           
00 26.02.13 230 (ЮЗ) 4000 м  слаб. ливневой снег  10/5 600 м кучево-дожд., верхняя 
[Cb cap|Cs]
-15.3 -18.9 74 -19  1027.2  1.9  743  319  -16.5    0.2  22  равномерный
сухой снег
100% 
03 26.02.13 220 (ЮЗ) >10 км  в посл. час ливневой снег  8/4 600 м кучево-дожд., верхняя 
[Cb cap|Ci fib]
-15 -21.4 58 -19  1028.4  1.2  744  319           
06 26.02.13 240 (ЮЗ) 3{10}  >10 км  {ливн. осадки}  5/3 600 м верхняя 
[Cu hum|Ci fib]
-11.9 -23.4 38 -15  1026.6  -1.3  743  315           
09 26.02.13 210 (ЮЗ) 3{10}  >10 км    10/0 верхняя 
[Cs]
-11.9 -24.8 33 -15  1023  -3.5  740  313           
12 26.02.13 180 (Ю) >10 км    10/5 600 м кучево-дожд., верхняя 
[Cb cap|Cs]
-12.5 -24 38 -15  1018.5  -4.4  737  313    -11.2  0.0     
15 26.02.13 190 (Ю) 4000 м    10/8 600 м кучево-дожд., верхняя 
[Cb cap|Cs]
-12.3 -22.9 41 -14  1013.4  -4.9  733  311           
18 26.02.13 240 (ЮЗ) 4000 м  слаб. ливневой снег  10/6 600 м кучево-дожд., верхняя 
[Cb cap|Cs]
-12.4 -16.1 74 -14  1011.5  -1.8  732  310           
21 26.02.13 250 (З) 4000 м  слаб. ливневой снег  10/8 600 м кучево-дожд., верхняя 
[Cb cap|Cs]
-12.5 -14.9 82 -15  1013.3  1.7  733  311           
00 27.02.13 250 (З) 4{12}  н/о  ливневой снег  10/10 600 м кучево-дожд. 
[Cb cap]
-13.7 -16 83 -18  1018.8  5.1  737  314  -13.7    0.9  24  равномерный
сухой снег
100% 
06 27.02.13 240 (ЮЗ) 4{13}  >10 км  ливневой снег  10/10 600 м кучево-дожд. 
[Cb cap]
-14.2 -19.8 63 -19  1026.5  2.5  742  317           
12 27.02.13 220 (ЮЗ) 5{13}  10 км  слаб. ливневой снег  10/5 600 м кучево-дожд., верхняя 
[Cb cap|Cs]
-13.1 -18.2 65 -18  1023.3  -1.4  740  315    -13.1  0.6     
18 27.02.13 210 (ЮЗ) 3{12}  4000 м  {ливн. осадки}  10/0 средняя 
[As trans]
-10.9 -21.4 42 -14  1020.2  -1.5  738  311           
00 28.02.13 220 (ЮЗ) 7-16{16}  4000 м  метель  9/0 верхняя 
[Ci fib]
-9.6 -19.7 44 -15  1017.5  -1  736  309  -13.1    0.0  21  равномерный
сухой снег
100% 
06 28.02.13 230 (ЮЗ) 4{14}  >10 км  позёмок  3/0 верхняя 
[Ci fib]
-1.4 -20 23 -4  1017  0.6  737  300           
12 28.02.13 220 (ЮЗ) 4{12}  >10 км    10/8 600 м кучево-дожд., средняя, верхняя 
[Cb cap|Ac trans|Ci fib]
-1.5 -20 23 -4  1016.5  -0.3  736  300    +0.4       
15 28.02.13 210 (ЮЗ) 5{10}  н/о    3/0 средняя 
[Ac lent]
-2 -15.6 35 -5  1016.5  -0.7  725  296           
18 28.02.13 220 (ЮЗ) 4{11}  4000 м    10/10 600 м кучево-дожд. 
[Cb cap]
-1.8 -17.4 29 -5  1015.2  -1.1  735  300           
21 28.02.13 210 (ЮЗ) 4000 м    10/10 600 м кучево-дожд. 
[Cb cap]
-1.9 -18 28 -4  1013.4  -1.6  734  299           
00 01.03.13 220 (ЮЗ) 4000 м    10/6 600 м кучево-дожд., средняя, верхняя 
[Cb cap|Ac lent|Ci fib]
-2.4 -18.2 29 -4  1013  -0.4  734  300  -2.6      21  равномерный
мокрый или
старый снег
100% 
03 01.03.13 200 (Ю) >10 км    9/4 2000 м средняя, верхняя 
[Ac trans|Ci fib]
-0.6 -17.3 27 -2  1011.2  -1.5  733  297  -2.9         
06 01.03.13 220 (ЮЗ) 3{10}  >10 км    10/4 1000 м средняя 
[Sc|Ac As]
+1.7 -14.6 29 1010.1  -0.8  732  294           
12 01.03.13 270 (З) 4{17}  >10 км  слаб. ливневой снег  9/4 600 м кучево-дожд., верхняя 
[Cb cap|Ci fib]
-3 -11.1 53 -6  1016.3  5.4  736  301    +2.9  0.3     
18 01.03.13 250 (З) 4000 м  {ливн. осадки}  9/6 2000 м средняя, верхняя 
[Ac trans|Ci fib]
-10.7 -23.6 34 -13  1021.2  -0.5  739  311           
21 01.03.13 тихо ()   4000 м    10/10 2000 м 
[Ac As]
-12.2 -20.3 51 -12  1018.7  -2.6  737  312           
00 02.03.13 тихо ()   4000 м  слаб. ливневой снег  10/10 600 м кучево-дожд. 
[Cb cap]
-12.4 -15.5 78 -12  1017.6  -1.1  736  312  -12.4    0.0  20  равномерный
сухой снег
100% 
06 02.03.13 060 (СВ) 10 км  слаб. ливневой снег  10/6 600 м кучево-дожд., верхняя 
[Cb cap|Cs]
-8.5 -10.8 84 -10  1016.6  -0.4  736  307           
09 02.03.13 300 (СЗ) 10 км  слаб. ливневой снег  10/10 600 м кучево-дожд. 
[Cb cap]
-4.7 -7 84 -6  1017.1  1.1  737  303           
12 02.03.13 270 (З) 3{12}  >10 км  слаб. ливневой снег  8/8 600 м кучево-дожд. 
[Cb cap]
-7.6 -11.9 71 -10  1022.1  4.5  740  308    -3.6  0.7     
18 02.03.13 220 (ЮЗ) 4000 м  {ливн. осадки}  9/3 600 м кучево-дожд., верхняя 
[Cb cap|Ci fib]
-13.6 -15.7 84 -14  1025.8  -0.5  742  316           
21 02.03.13 240 (ЮЗ) 4000 м    9/8 600 м кучево-дожд., верхняя 
[Cb cap|Ci fib]
-13.3 -15 87 -13  1022.3  -3.3  740  315           
00 03.03.13 тихо ()   4000 м    9/3 600 м кучево-дожд., средняя, верхняя 
[Cb cap|Ac trans|Ci fib]
-13.6 -14.8 91 -14  1018.1  -4.1  736  314  -13.9    0.0  21  равномерный
сухой снег
100% 
03 03.03.13 210 (ЮЗ) 4-10  >10 км    10/3 2000 м средняя, верхняя 
[Ac lent|Cs]
-1.5 -7.8 62 -4  1011.1  -5.2  733  298           
06 03.03.13 210 (ЮЗ) 4{12}  >10 км    10/10 600 м кучево-дожд. 
[Cb cap]
+3 -7.1 47 +1  1003.2  -7  727  291           
12 03.03.13 230 (ЮЗ) 4{19}  >10 км  слаб. ливневой дождь  10/10 600 м кучево-дожд. 
[Cb cap]
+4.8 -1.4 64 +3  995.4  -1.2  722  286    +6  0.4     
18 03.03.13 270 (З) 4{12}  4000 м  {ливн. осадки}  9/9 600 м кучево-дожд. 
[Cb cap]
+3.3 -3.1 63 +1  1003.2  3.9  727  290           
21 03.03.13 250 (З) 3{11}  4000 м    10/10 600 м кучево-дожд. 
[Cb cap]
+2.1 -4.3 63 +1  1005.9  2.5  729  292           
00 04.03.13 230 (ЮЗ) 4000 м  слаб. ливневой снег  9/9 600 м кучево-дожд. 
[Cb cap]
+0.3 -3.3 77 -1  1007.7  1.5  730  294  +0.3    0.0  18  равномерный
мокрый или
старый снег
100% 
03 04.03.13 240 (ЮЗ) >10 км  {ливн. осадки}  9/0 верхняя 
[Sc diur, vesp|Cs]
+1.8 -5.4 59 +1  1008.6  731  293           
06 04.03.13 260 (З) 4{13}  >10 км  слаб. ливневой снег  9/8 2000 м верхняя 
[Cu med, cong|Ci fib]
+1.6 -4.7 63 -1  1011.1  2.4  733  294           
12 04.03.13 220 (ЮЗ) 1{11}  >10 км  {ливн. осадки}  10/6 600 м кучево-дожд., верхняя 
[Cb cap|Ci fib]
-0.5 -6.2 65 1012.1  -0.4  733  297    +2.8       
15 04.03.13 270 (З) 4000 м    6/3 600 м кучево-дожд., верхняя 
[Cb cap|Ci fib]
-0.3 -7.6 58 1008.8  -3.2  731  296           
18 04.03.13 230 (ЮЗ) 5{12}  4000 м    10/5 600 м кучево-дожд., верхняя 
[Cb cap|Ci fib]
+1 -7.9 51 -2  1005  -3.5  728  293           
21 04.03.13 220 (ЮЗ) 5{16}  4000 м    9/8 600 м кучево-дожд., верхняя 
[Cb cap|Ci fib]
+1.5 -7 53 -1  1002.9  -1.9  727  292           
00 05.03.13 230 (ЮЗ) 5{14}  4000 м  слаб. ливневой снег  10/10 600 м кучево-дожд. 
[Cb cap]
+0.5 -3.5 75 -2  1000.6  -2.4  725  292  -2.8      18  равномерный
мокрый или
старый снег
100% 
06 05.03.13 270 (З) 6{22}  >10 км  слаб. ливневой снег  8/4 600 м кучево-дожд., верхняя 
[Cb cap|Ci fib]
-5.7 -18.1 37 -10  1013.2  9.3  734  303           
12 05.03.13 280 (З) 2{15}  >10 км  {ливн. осадки}  4/3 600 м кучево-дожд., верхняя 
[Cb cap|Ci fib]
-12.7 -22.7 43 -15  1027.3  5.7  743  316    +0.4     
15 05.03.13 260 (З) 4000 м    3/0 верхняя 
[Ci fib]
-15.4 -24.8 44 -18  1031  3.3  746  320           
18 05.03.13 260 (З) 4000 м    3/0 верхняя 
[Ci fib]
-17.4 -25.6 49 -20  1033.1  1.7  747  323           
21 05.03.13 250 (З) 4000 м    ясно 
-19 -25.7 55 -22  1034.4  748  325           
00 06.03.13 220 (ЮЗ) 4000 м    ясно 
-20.8 -25.3 67 -24  1035.1  0.4  748  328  -21.7      19  равномерный
сухой снег
100% 
03 06.03.13 070 (В) >10 км    9/0 верхняя 
[Ci fib]
-18 -24.9 54 -18  1034.1  -0.6  747  324  -22.5         
06 06.03.13 090 (В) >10 км    9/0 верхняя 
[Ci fib]
-13.8 -22.8 46 -14  1030.7  -2.6  746  318           
09 06.03.13 060 (СВ) >10 км    9/0 верхняя 
[Ci fib]
-12.4 -22.7 42 -14  1026  -4.4  742  315           
12 06.03.13 060 (СВ) >10 км    9/9 2000 м средняя 
[Ac trans]
-14 -21.1 55 -16  1023.1  -3  740  316    -12       
15 06.03.13 030 (СВ) 4000 м    10/10 2000 м 
[Ac As]
-15.7 -21.3 62 -16  1020.5  -2.7  738  317           
18 06.03.13 тихо ()   4000 м    10/6 2000 м средняя, верхняя 
[Ac trans|Ci fib]
-18.1 -22.3 70 -18  1019.8  -1  737  320           
21 06.03.13 260 (З) 4000 м    10/10 600 м кучево-дожд. 
[Cb cap]
-18.2 -23.1 66 -18  1018.9  -0.9  737  320           
00 07.03.13 090 (В) 4000 м    10/10 600 м кучево-дожд. 
[Cb cap]
-15 -23.5 48 -19  1018.6  0.2  737  316  -18.7      17  равномерный
мокрый или
старый снег
100% 
03 07.03.13 080 (В) >10 км    10/8 600 м кучево-дожд., верхняя 
[Cb cap|Cs]
-14.1 -23.1 47 -18  1016.9  -1.5  735  314           
06 07.03.13 080 (В) >10 км    10/5 600 м кучево-дожд., верхняя 
[Cb cap|Cs]
-11.6 -22 42 -15  1014.3  -2.1  734  310           
09 07.03.13 110 (В) >10 км    10/5 600 м кучево-дожд., верхняя 
[Cb cap|Cs]
-8.7 -20.2 39 -10  1011.1  -2.7  732  306           
12 07.03.13 100 (В) 3{10}  >10 км  слаб. ливневой снег  10/10 600 м кучево-дожд. 
[Cb cap]
-11.1 -18.5 55 -14  1009.2  -2.2  730  308    -8.7  0.0     
18 07.03.13 090 (В) н/о  ливневой снег  10/10 600 м кучево-дожд. 
[Cb cap]
-12.6 -13.7 91 -15  999.9  -4.4  723  307           
21 07.03.13 тихо ()   н/о  ливневой снег  10/10 600 м кучево-дожд. 
[Cb cap]
-12.4 -13.4 92 -12  999.6  -0.3  723  306           
00 08.03.13 250 (З) 6{13}  н/о  ливневой снег  10/10 600 м кучево-дожд. 
[Cb cap]
-9.4 -10.2 94 -15  1004  4.6  727  304  -12.8    28  равномерный
сухой снег
100% 
06 08.03.13 260 (З) 4-12{15}  >10 км  слаб. ливневой снег  10/8 600 м кучево-дожд., верхняя 
[Cb cap|Cs]
-10.2 -17 57 -14  1017.6  5.7  736  310           
12 08.03.13 230 (ЮЗ) 3{15}  >10 км  {ливн. осадки}  10/0 верхняя 
[Cs]
-9.3 -15 63 -12  1021.1  0.4  739  310    -8.8     
18 08.03.13 230 (ЮЗ) 3{15}  4000 м  слаб. ливневой снег  10/10 600 м кучево-дожд. 
[Cb cap]
-8.2 -10.7 82 -11  1017.5  -0.7  737  307           
21 08.03.13 220 (ЮЗ) н/о  ливневой снег  10/10 600 м кучево-дожд. 
[Cb cap]
-7.1 -9 86 -11  1016  -1.3  736  305           
00 09.03.13 220 (ЮЗ) 4{10}  4000 м  слаб. ливневой снег  10/10 600 м кучево-дожд. 
[Cb cap]
-6.1 -8.8 81 -9  1013.9  -1.9  734  303  -9.4    23  равномерный
сухой снег
100% 
06 09.03.13 220 (ЮЗ) 6{13}  >10 км  ливневой снег  10/10 600 м кучево-дожд. 
[Cb cap]
-0.9 -9.5 52 -5  1010.9  -0.9  732  297           
12 09.03.13 240 (ЮЗ) 3{11}  >10 км  позёмок{ливн. осадки}  10/10 600 м кучево-дожд. 
[Cb cap]
+1 -15 29 -1  1003.5  -3.3  727  293    +1       
18 09.03.13 250 (З) 6-18{23}  4000 м  метель  10/4 600 м кучево-дожд., средняя 
[Cb cap|Ac As]
-1.4 -11.5 46 -5  1004.2  2.8  728  296           
00 10.03.13 270 (З) 5-11{13}  0500 м  ливневой снег  10/10 600 м кучево-дожд. 
[Cb cap]
-4.9 -5.6 95 -9  1005.5  728  299  -4.9    0.4  21  равномерный
сухой снег
100% 
06 10.03.13 260 (З) 6{17}  >10 км  слаб. ливневой снег  10/5 600 м кучево-дожд., средняя 
[Cb cap|Ac trans]
-7.8 -18.1 43 -13  1011.9  3.5  733  305           
12 10.03.13 260 (З) 5{14}  >10 км  слаб. ливневой снег  9/6 600 м кучево-дожд., средняя 
[Cb cap|Ac trans]
-11.6 -22.1 41 -17  1022.4  4.8  740  313    -4.3     
18 10.03.13 230 (ЮЗ) 3{10}  4000 м  слаб. ливневой снег  10/10 600 м кучево-дожд. 
[Cb cap]
-13.3 -17.6 70 -17  1027.8  1.5  743  316           
21 10.03.13 230 (ЮЗ) 4000 м  слаб. ливневой снег  10/10 600 м кучево-дожд. 
[Cb cap]
-13.2 -18.4 65 -17  1029.2  1.4  744  317           
00 11.03.13 250 (З) >10 км  слаб. ливневой снег  10/10 600 м кучево-дожд. 
[Cb cap]
-14.5 -17.6 77 -17  1031.2  1.7  746  319  -15    0.3  21  равномерный
сухой снег
100% 
06 11.03.13 280 (З) 4{11}  >10 км  слаб. ливневой снег  9/9 600 м кучево-дожд. 
[Cb cap]
-11.4 -19.2 52 -16  1033.6  0.9  748  316           
09 11.03.13 260 (З) 3{10}  >10 км  {ливн. осадки}  8/0 
-10 -20.4 42 -13  1033.2  -0.2  748  314           
12 11.03.13 240 (ЮЗ) >10 км  {ливн. осадки}  3/3 600 м кучево-дожд. 
[Cb cap]
-12.2 -18.6 59 -14  1034.4  0.9  748  317    -9.6  0.0     
15 11.03.13 230 (ЮЗ) 4000 м    3/0 верхняя 
[Ci fib]
-15.5 -20.7 64 -18  1035.2  0.3  749  321           
18 11.03.13 210 (ЮЗ) 4000 м    ясно 
-18.9 -21.8 78 -19  1035.5  -0.2  748  326           
Время (UTC), дата Ветер
(°,м/с) 
Видим.   Явления Облачность Т
(°С)
Тd
(°С)
f(%) Тe
(°С)
Pmin
(гПа)
dP
(гПа)
Po
(мм)
O2
(г/м3)
Тmin Tmax R s Состояние
почвы